Location: Veytaux
(46.4185°N, 6.9320°E)
Time: 07:26:24
(UTC+00:00)

Cosmos 1544 Rocket - Pass Details

Date: 27 May 2022
Orbit: 603 x 631 km, 82.5° (Epoch: 01 July)

Event Time Altitude Azimuth Distance (km) Brightness Sun altitude
Rises 01:20:55 0° 349° (N) 2,917 7.9 -17.8°
Reaches altitude 10° 01:23:10 10° 348° (NNW) 2,001 6.9 -17.6°
Maximum altitude 01:27:35 74° 264° (W) 647 3.5 -17.2°
Enters shadow 01:29:38 31° 185° (S) 1,090 4.3 -17.1°
